KROZINGEN Weather Reports


time (UTC)temp
C
wind
direction
speed
KPH
gust
KPH
rain 1hr
cm
rain 24hr
cm
rain mn
cm
humidity
%
barometer
mb
20260506180216 10 245 4.8 0.0 0.00 0.00 0.53 94 1010.2
20260506173210 10 216 16.1 0.0 0.00 0.00 0.46 94 1009.8
20260506170215 11 129 8.0 0.0 0.00 0.00 0.36 93 1009.5
20260506163210 11 172 14.5 0.0 0.00 0.00 0.25 91 1009.5
20260506160210 11 212 8.0 0.0 0.00 0.00 0.18 90 1009.4
20260506153210 11 255 9.7 0.0 0.00 0.00 0.10 87 1009.2
20260506150210 11 208 17.7 0.0 0.00 0.00 0.05 83 1009.0
20260506143210 12 226 16.1 0.0 0.00 0.00 0.05 84 1008.9
20260506140210 12 134 17.7 0.0 0.00 0.00 0.05 85 1008.8
20260506133211 12 207 16.1 0.0 0.00 0.00 0.05 87 1008.7
20260506130211 13 284 19.3 0.0 0.00 0.00 0.03 84 1008.4
20260506123210 13 162 24.1 0.0 0.00 0.00 0.03 87 1008.0
20260506120210 14 237 14.5 0.0 0.00 0.00 0.00 86 1007.7
20260506113217 14 309 25.7 0.0 0.00 0.00 0.00 82 1007.6
20260506110210 15 270 8.0 0.0 0.00 0.00 0.00 81 1007.6
20260506100213 15 234 14.5 0.0 0.00 0.00 0.00 77 1007.2
20260506093211 15 216 9.7 0.0 0.00 0.00 0.00 74 1007.1
20260506090211 16 193 12.9 0.0 0.00 0.00 0.00 72 1007.0
20260506083211 16 225 9.7 0.0 0.00 0.00 0.00 73 1006.7
20260506080212 15 189 9.7 0.0 0.00 0.00 0.00 75 1006.9
20260506073211 14 102 8.0 0.0 0.00 0.00 0.00 77 1006.9
20260506070212 15 224 8.0 0.0 0.00 0.00 0.00 76 1006.9
20260506060210 13 172 4.8 0.0 0.00 0.00 0.00 81 1007.0
20260506050211 11 136 3.2 0.0 0.00 0.00 0.00 85 1007.1
20260506043211 11 227 6.4 0.0 0.00 0.00 0.00 85 1007.3
20260506040211 11 253 6.4 0.0 0.00 0.00 0.00 85 1007.5
20260506033211 11 152 4.8 0.0 0.00 0.00 0.00 86 1007.6
20260506030212 10 132 3.2 0.0 0.00 0.00 0.00 89 1007.7
20260506023211 11 211 1.6 0.0 0.00 0.00 0.00 86 1008.0
20260506020212 11 226 3.2 0.0 0.00 0.00 0.00 84 1008.1
20260506013211 11 204 1.6 0.0 0.00 0.00 0.00 86 1008.6
20260506010212 11 228 1.6 0.0 0.00 0.00 0.00 87 1008.4
20260506003209 11 224 0.0 0.0 0.00 0.00 0.00 88 1008.5
20260506000211 11 203 3.2 0.0 0.00 0.00 0.00 86 1008.9
20260505233209 12 229 1.6 0.0 0.00 0.00 0.00 85 1009.0
20260505230209 12 128 1.6 0.0 0.00 0.00 0.00 85 1009.1
20260505223210 12 131 3.2 0.0 0.00 0.00 0.00 86 1009.3
20260505220209 12 235 3.2 0.0 0.00 0.00 0.33 86 1009.5
20260505213211 12 228 1.6 0.0 0.00 0.00 0.33 86 1009.3
20260505210215 12 140 3.2 0.0 0.00 0.00 0.33 86 1009.5
20260505203209 13 143 8.0 0.0 0.00 0.00 0.33 86 1009.5
20260505200210 13 127 1.6 0.0 0.00 0.00 0.33 88 1009.2
20260505193209 13 139 3.2 0.0 0.00 0.00 0.33 86 1009.0
20260505190215 14 207 4.8 0.0 0.00 0.00 0.33 83 1008.8
20260505183212 15 143 4.8 0.0 0.00 0.00 0.33 85 1008.3